Tracking 19490 objects as of 24-Jan-2019
HD Live streaming from Space Station
objects crossing your sky now

FLOCK 3K 11

Track FLOCK 3K 11 now!
10-day predictions
FLOCK 3K 11 is classified as:


NORAD ID: 43904
Int'l Code: 2018-111AE
Perigee: 485.4 km
Apogee: 517.6 km
Inclination: 97.3 °
Period: 94.5 minutes
Semi major axis: 6872 km
RCS: Unknown
Launch date: December 27, 2018
Source: United States (US)
Launch site: VOSTOCHNY COSMODROME (VOSTO)
aabbcc
Your satellite tracking list
Your tracking list is empty




NASA's NSSDC Master Catalog

Two Line Element Set (TLE):
1 43904U 18111AE  19023.66339245  .00003406  00000-0  14327-3 0  9998
2 43904  97.2996 292.8236 0023428 143.6661 216.6172 15.23811594  4202
Source of the keplerian elements: AFSPC